Miscellaneous Local Product
Issued by NWS North Platte, NE

Home | Current Version | Previous Version | Text Only | Print | Product List | Glossary On
Versions: 1 2 3 4 5 6 7 8 9 10 11 12 13 14 15 16 17 18 19 20 21 22 23 24 25 26 27 28 29 30 31 32 33 34 35 36 37 38 39 40 41 42 43 44 45 46 47 48 49 50
415
AXUS43 KLBF 231010
MISLBF


WESTERN AND NORTH CENTRAL NEBRASKA HOURLY WEATHER ROUNDUP
NATIONAL WEATHER SERVICE NORTH PLATTE NE
500 AM CDT WED MAY 23 2018

NOTE: "FAIR" INDICATES FEW OR NO CLOUDS BELOW 12,000 FEET WITH NO
SIGNIFICANT WEATHER AND/OR OBSTRUCTIONS TO VISIBILITY.

NOTE: STATIONS NOT REPORTING VARIABLES SUCH AS SKY/WEATHER OR
PRESSURE ARE PROVIDED BY RAWS AND APRS NETWORKS AND ARE NOT UNDER
NATIONAL WEATHER SERVICE QUALITY CONTROL.

...OBSERVATIONS IN AND NEAR THE EASTERN PANHANDLE OF NEBRASKA...

CITY           SKY/WX    TMP DP  RH WIND       PRES   REMARKS
PINE RIDGE     MOCLDY    54  54 100 S5        29.89R
GORDON         FAIR      55  54  95 SW5       29.91S
CHADRON        CLOUDY    54  54 100 W3        29.92R
ALLIANCE       PTCLDY    55  54  96 E5        29.91S
SIDNEY         CLOUDY    56  52  86 N7        29.95S
CRESCENT LAKE    N/A     58  53  82 CALM        N/A
$$

...OBSERVATIONS IN NORTHERN NEBRASKA AND FAR SOUTHERN SOUTH DAKOTA...

CITY           SKY/WX    TMP DP  RH WIND       PRES   REMARKS
WINNER         TSTM      67  62  84 NE6       29.88S
VALENTINE      PTCLDY    69  62  78 S17       29.87F
AINSWORTH      MOCLDY    68  63  82 S14       29.91S
O`NEILL        MOCLDY    68  64  85 SE7       29.96R
THEDFORD       PTCLDY    69  60  73 S9G17     29.93R
BROKEN BOW     MOCLDY    68  62  81 S9        29.94S
ORD            MOCLDY    68  62  81 S7        29.94R
ALBION         CLOUDY    66  63  91 SE7       29.98R
VALENTINE NWR    N/A     65  61  86 SE9         N/A
HALSEY           N/A     67  60  79 S8          N/A
BUTTE            N/A     68  63  83 SE10        N/A
CHAMBERS         N/A     65  62  91 CALM        N/A
EWING            N/A     66  62  88 CALM        N/A
$$

...OBSERVATIONS IN SOUTHWEST NEBRASKA AND FAR NORTHEAST COLORADO...

CITY           SKY/WX    TMP DP  RH WIND       PRES   REMARKS
WRAY           FAIR      57  52  82 SE3       29.94S
HOLYOKE        FAIR      61  54  77 S10       29.93R
IMPERIAL       MOCLDY    61  57  87 S5        29.93S
OGALLALA       MOCLDY    65  57  76 S12G18    29.90R
NORTH PLATTE   CLOUDY    68  59  73 S7        29.93S
MCCOOK         PTCLDY    66  58  75 S8        29.93R
LEXINGTON      MOCLDY    67  61  80 S12       29.96R
STAPLETON        N/A     67  59  75 SE5G12      N/A
GOTHENBURG       N/A     69  56  64 S9          N/A
CALLAWAY         N/A     66  61  85 S17         N/A
$$

...OBSERVATIONS IN CENTRAL LINCOLN COUNTY AREA...

CITY           SKY/WX    TMP DP  RH WIND       PRES   REMARKS
N.P. AIRPORT   CLOUDY    68  59  73 S7        29.93S
N.P. DOWNTOWN    N/A     66  59  78 CALM        N/A
N.P. SOUTHEAST   N/A     66  58  76 S5G12       N/A
$$

...OBSERVATIONS ACROSS THE ROCKIES AND WESTERN HIGH PLAINS...

CITY           SKY/WX    TMP DP  RH WIND       PRES   REMARKS
RAPID CITY     PTCLDY    55  54  96 W3        29.88R
SCOTTSBLUFF    PTCLDY    53  53 100 NW7       29.94R
CHEYENNE       CLEAR     48  43  82 W14       30.01F
DENVER         PTCLDY    55  45  68 CALM      30.01S
BERTHOUD PASS  FAIR      34  23  64 S12G17    30.36S WCI  25
COPPER MTN     CLEAR     41  25  52 SE7       30.33
MONARCH PASS   CLEAR     37  23  56 MISG      30.43S
ASPEN          PTCLDY    36  31  82 S3        30.11S
STEAMBOAT      FAIR      36  36 100 CALM      30.08S
LARAMIE        CLEAR     39  38  96 S13       30.07R WCI  31
CASPER         CLOUDY    52  51  97 SW8       29.97S
$$

...OBSERVATIONS ACROSS THE NORTHERN PLAINS...

CITY           SKY/WX    TMP DP  RH WIND       PRES   REMARKS
BISMARCK       MOCLDY    60  58  92 E7        29.95R
FARGO          FAIR      64  56  75 SE9       30.01R
PIERRE         CLOUDY    63  62  97 NE8       29.88R
SIOUX FALLS    PTCLDY    64  62  93 E6        29.99R
$$

...OBSERVATIONS ACROSS THE CENTRAL AND SOUTHERN PLAINS...

CITY           SKY/WX    TMP DP  RH WIND       PRES   REMARKS
OMAHA          PTCLDY    68  62  81 S5        30.01R
GRAND ISLAND   PTCLDY    66  62  87 S10       29.97R
KANSAS CITY    CLEAR     67  62  84 SE9       30.05R
WICHITA        PTCLDY    67  66  97 S5        30.01R
DODGE CITY     CLOUDY    67  60  78 SW8       30.03R
OKLAHOMA CITY  PTCLDY    67  66  97 S5        30.01R
DALLAS         PTCLDY    73  68  84 SE7       29.99R
AMARILLO       CLOUDY    63  57  81 SE9       30.05R
$$




USA.gov is the U.S. government's official web portal to all federal, state and local government web resources and services.